| time (UTC) | temp C | wind direction | speed KPH | gust KPH | rain 1hr cm | rain 24hr cm | rain mn cm | humidity % | barometer mb |
| 20260906191113 | 34 | 74 | 8.0 | 16.1 | 0.00 | 0.00 | 0.00 | 51 | 1012.5 |
| 20260906190215 | 33 | 59 | 6.4 | 14.5 | 0.00 | 0.00 | 0.00 | 52 | 1012.8 |
| 20260906185617 | 33 | 47 | 8.0 | 16.1 | 0.00 | 0.00 | 0.00 | 52 | 1012.9 |
| 20260906184503 | 33 | 27 | 8.0 | 16.1 | 0.00 | 0.00 | 0.00 | 51 | 1013.3 |
| 20260906183817 | 33 | 2 | 8.0 | 16.1 | 0.00 | 0.00 | 0.00 | 51 | 1013.4 |
| 20260906182914 | 34 | 19 | 6.4 | 14.5 | 0.00 | 0.00 | 0.00 | 51 | 1013.5 |
| 20260906181804 | 34 | 23 | 8.0 | 14.5 | 0.00 | 0.00 | 0.00 | 50 | 1013.8 |
| 20260906180904 | 33 | 31 | 6.4 | 14.5 | 0.00 | 0.00 | 0.00 | 52 | 1013.9 |
| 20260906180216 | 33 | 351 | 9.7 | 19.3 | 0.00 | 0.00 | 0.00 | 54 | 1014.1 |
| 20260906175403 | 32 | 341 | 9.7 | 17.7 | 0.00 | 0.00 | 0.00 | 54 | 1014.2 |
| 20260906174715 | 32 | 341 | 12.9 | 19.3 | 0.00 | 0.00 | 0.00 | 55 | 1014.4 |
| 20260906173603 | 32 | 14 | 11.3 | 16.1 | 0.00 | 0.00 | 0.00 | 55 | 1014.5 |
| 20260906172703 | 32 | 6 | 12.9 | 19.3 | 0.00 | 0.00 | 0.00 | 57 | 1014.7 |
| 20260906171803 | 32 | 354 | 12.9 | 17.7 | 0.00 | 0.00 | 0.00 | 56 | 1014.8 |
| 20260906171114 | 32 | 346 | 12.9 | 19.3 | 0.00 | 0.00 | 0.00 | 55 | 1014.8 |
| 20260906170003 | 32 | 15 | 9.7 | 16.1 | 0.00 | 0.00 | 0.00 | 56 | 1015.1 |
| 20260906165613 | 31 | 358 | 11.3 | 17.7 | 0.00 | 0.00 | 0.00 | 56 | 1015.1 |
| 20260906164716 | 32 | 343 | 12.9 | 20.9 | 0.00 | 0.00 | 0.00 | 56 | 1015.1 |
| 20260906163603 | 31 | 347 | 14.5 | 20.9 | 0.00 | 0.00 | 0.00 | 56 | 1015.2 |
| 20260906162915 | 31 | 344 | 12.9 | 20.9 | 0.00 | 0.00 | 0.00 | 56 | 1015.2 |
| 20260906161803 | 31 | 305 | 11.3 | 16.1 | 0.00 | 0.00 | 0.00 | 57 | 1015.2 |
| 20260906160903 | 31 | 317 | 11.3 | 19.3 | 0.00 | 0.00 | 0.00 | 57 | 1015.2 |
| 20260906160217 | 30 | 303 | 8.0 | 14.5 | 0.00 | 0.00 | 0.00 | 59 | 1015.2 |
| 20260906155403 | 30 | 305 | 6.4 | 12.9 | 0.00 | 0.00 | 0.00 | 61 | 1015.0 |
| 20260906154503 | 29 | 272 | 4.8 | 12.9 | 0.00 | 0.00 | 0.00 | 62 | 1015.0 |
| 20260906153813 | 28 | 254 | 3.2 | 9.7 | 0.00 | 0.00 | 0.00 | 64 | 1014.9 |
| 20260906152703 | 28 | 269 | 3.2 | 8.0 | 0.00 | 0.00 | 0.00 | 65 | 1014.9 |
| 20260906152013 | 28 | 281 | 1.6 | 4.8 | 0.00 | 0.00 | 0.00 | 67 | 1014.8 |
| 20260906150904 | 27 | 282 | 1.6 | 4.8 | 0.00 | 0.00 | 0.00 | 68 | 1014.8 |
| 20260906150213 | 27 | 282 | 1.6 | 4.8 | 0.00 | 0.00 | 0.00 | 68 | 1014.7 |
| 20260906145614 | 27 | 282 | 1.6 | 6.4 | 0.00 | 0.00 | 0.00 | 69 | 1014.6 |
| 20260906144717 | 27 | 276 | 3.2 | 14.5 | 0.00 | 0.00 | 0.00 | 70 | 1014.8 |
| 20260906143603 | 27 | 279 | 9.7 | 32.2 | 0.00 | 0.00 | 0.00 | 69 | 1015.1 |
| 20260906142917 | 27 | 130 | 3.2 | 4.8 | 0.00 | 0.00 | 0.00 | 69 | 1014.5 |
| 20260906142014 | 28 | 130 | 4.8 | 8.0 | 0.00 | 0.00 | 0.00 | 69 | 1014.5 |
| 20260906141116 | 28 | 123 | 4.8 | 8.0 | 0.00 | 0.00 | 0.00 | 68 | 1014.4 |
| 20260906140003 | 27 | 105 | 4.8 | 9.7 | 0.00 | 0.00 | 0.00 | 68 | 1014.5 |
| 20260906135615 | 27 | 93 | 3.2 | 9.7 | 0.00 | 0.00 | 0.00 | 69 | 1014.4 |
| 20260906134503 | 27 | 0 | 0.0 | 0.0 | 0.00 | 0.00 | 0.00 | 72 | 1014.4 |
| 20260906133603 | 27 | 0 | 0.0 | 0.0 | 0.00 | 0.00 | 0.00 | 72 | 1014.3 |
| 20260906132917 | 27 | 89 | 0.0 | 1.6 | 0.00 | 0.00 | 0.00 | 72 | 1014.3 |
| 20260906132014 | 26 | 89 | 1.6 | 3.2 | 0.00 | 0.00 | 0.00 | 73 | 1014.2 |
| 20260906131117 | 25 | 90 | 1.6 | 3.2 | 0.00 | 0.00 | 0.00 | 77 | 1014.2 |
| 20260906130003 | 24 | 90 | 1.6 | 3.2 | 0.00 | 0.00 | 0.00 | 81 | 1013.9 |
| 20260906125616 | 23 | 90 | 1.6 | 3.2 | 0.00 | 0.00 | 0.00 | 81 | 1013.9 |
| 20260906124504 | 23 | 90 | 0.0 | 1.6 | 0.00 | 0.00 | 0.00 | 80 | 1013.9 |
| 20260906123815 | 23 | 90 | 1.6 | 6.4 | 0.00 | 0.00 | 0.00 | 79 | 1013.8 |
| 20260906122703 | 23 | 88 | 4.8 | 8.0 | 0.00 | 0.00 | 0.00 | 79 | 1013.5 |
| 20260906122015 | 23 | 90 | 8.0 | 11.3 | 0.00 | 0.00 | 0.00 | 79 | 1013.4 |
| 20260906121117 | 23 | 86 | 8.0 | 11.3 | 0.00 | 0.00 | 0.00 | 79 | 1013.3 |
| 20260906120215 | 23 | 62 | 8.0 | 9.7 | 0.00 | 0.00 | 0.00 | 80 | 1013.1 |
| 20260906115403 | 23 | 29 | 9.7 | 11.3 | 0.00 | 0.00 | 0.00 | 80 | 1013.0 |
| 20260906114503 | 23 | 53 | 8.0 | 11.3 | 0.00 | 0.00 | 0.00 | 80 | 1012.8 |
| 20260906113816 | 23 | 50 | 8.0 | 11.3 | 0.00 | 0.00 | 0.00 | 80 | 1012.9 |
| 20260906112703 | 23 | 60 | 8.0 | 11.3 | 0.00 | 0.00 | 0.00 | 79 | 1012.8 |
| 20260906111803 | 23 | 84 | 6.4 | 9.7 | 0.00 | 0.00 | 0.00 | 79 | 1012.8 |
| 20260906111113 | 23 | 93 | 9.7 | 11.3 | 0.00 | 0.00 | 0.00 | 80 | 1012.8 |
| 20260906110215 | 23 | 83 | 9.7 | 12.9 | 0.00 | 0.00 | 0.00 | 80 | 1012.7 |
| 20260906105617 | 23 | 101 | 8.0 | 9.7 | 0.00 | 0.00 | 0.00 | 79 | 1012.7 |
| 20260906104714 | 23 | 101 | 6.4 | 9.7 | 0.00 | 0.00 | 0.00 | 79 | 1012.7 |
| 20260906103603 | 23 | 98 | 4.8 | 9.7 | 0.00 | 0.00 | 0.00 | 79 | 1012.7 |
| 20260906102914 | 23 | 98 | 6.4 | 11.3 | 0.00 | 0.00 | 0.00 | 78 | 1012.7 |
| 20260906101804 | 23 | 89 | 8.0 | 11.3 | 0.00 | 0.00 | 0.00 | 78 | 1012.5 |
| 20260906101114 | 23 | 81 | 8.0 | 11.3 | 0.00 | 0.00 | 0.00 | 78 | 1012.6 |
| 20260906100216 | 23 | 76 | 8.0 | 11.3 | 0.00 | 0.00 | 0.00 | 78 | 1012.5 |
| 20260906095613 | 23 | 54 | 9.7 | 12.9 | 0.00 | 0.00 | 0.00 | 78 | 1012.4 |
| 20260906094504 | 23 | 55 | 6.4 | 9.7 | 0.00 | 0.00 | 0.00 | 78 | 1012.3 |
| 20260906093812 | 23 | 74 | 4.8 | 6.4 | 0.00 | 0.00 | 0.00 | 78 | 1012.4 |
| 20260906092915 | 23 | 40 | 6.4 | 11.3 | 0.00 | 0.00 | 0.00 | 78 | 1012.5 |
| 20260906092017 | 24 | 42 | 8.0 | 12.9 | 0.00 | 0.00 | 0.00 | 77 | 1012.4 |
| 20260906090903 | 24 | 84 | 4.8 | 9.7 | 0.00 | 0.00 | 0.00 | 77 | 1012.5 |
| 20260906090217 | 24 | 82 | 4.8 | 6.4 | 0.00 | 0.00 | 0.00 | 77 | 1012.5 |
| 20260906085613 | 24 | 68 | 6.4 | 9.7 | 0.00 | 0.00 | 0.00 | 77 | 1012.5 |
| 20260906084716 | 24 | 95 | 4.8 | 9.7 | 0.00 | 0.00 | 0.00 | 77 | 1012.5 |
| 20260906083813 | 24 | 87 | 4.8 | 6.4 | 0.00 | 0.00 | 0.00 | 78 | 1012.4 |
| 20260906082915 | 24 | 92 | 6.4 | 9.7 | 0.00 | 0.00 | 0.00 | 78 | 1012.3 |
| 20260906082018 | 24 | 93 | 6.4 | 11.3 | 0.00 | 0.00 | 0.00 | 78 | 1012.3 |
| 20260906080903 | 24 | 53 | 8.0 | 12.9 | 0.00 | 0.00 | 0.00 | 77 | 1012.3 |
| 20260906080003 | 24 | 36 | 6.4 | 9.7 | 0.00 | 0.00 | 0.00 | 77 | 1012.3 |
| 20260906075403 | 24 | 48 | 4.8 | 9.7 | 0.00 | 0.00 | 0.00 | 76 | 1012.3 |
| 20260906074716 | 25 | 36 | 6.4 | 12.9 | 0.00 | 0.00 | 0.00 | 76 | 1012.2 |
| 20260906073813 | 25 | 11 | 11.3 | 14.5 | 0.00 | 0.00 | 0.00 | 75 | 1012.1 |
| 20260906072703 | 25 | 12 | 12.9 | 14.5 | 0.00 | 0.00 | 0.00 | 75 | 1012.1 |
| 20260906072013 | 25 | 13 | 12.9 | 14.5 | 0.00 | 0.00 | 0.00 | 75 | 1012.1 |
| 20260906071116 | 25 | 11 | 11.3 | 14.5 | 0.00 | 0.00 | 0.00 | 75 | 1012.2 |
| 20260906070003 | 25 | 10 | 9.7 | 12.9 | 0.00 | 0.00 | 0.00 | 74 | 1012.3 |
| 20260906065614 | 25 | 31 | 8.0 | 11.3 | 0.00 | 0.00 | 0.00 | 74 | 1012.4 |
| 20260906064717 | 25 | 27 | 8.0 | 12.9 | 0.00 | 0.00 | 0.00 | 73 | 1012.4 |
| 20260906063814 | 26 | 31 | 12.9 | 16.1 | 0.00 | 0.00 | 0.00 | 72 | 1012.2 |
| 20260906062703 | 26 | 58 | 16.1 | 19.3 | 0.00 | 0.00 | 0.00 | 71 | 1012.2 |
| 20260906062014 | 26 | 65 | 16.1 | 19.3 | 0.00 | 0.00 | 0.00 | 70 | 1012.2 |
| 20260906061116 | 26 | 41 | 14.5 | 17.7 | 0.00 | 0.00 | 0.00 | 69 | 1012.2 |
| 20260906060003 | 26 | 54 | 14.5 | 17.7 | 0.00 | 0.00 | 0.00 | 68 | 1012.4 |
| 20260906055403 | 26 | 29 | 14.5 | 17.7 | 0.00 | 0.00 | 0.00 | 68 | 1012.4 |
| 20260906054504 | 26 | 17 | 12.9 | 16.1 | 0.00 | 0.00 | 0.00 | 69 | 1012.4 |
| 20260906053603 | 27 | 33 | 12.9 | 16.1 | 0.00 | 0.00 | 0.00 | 68 | 1012.4 |
| 20260906052917 | 27 | 22 | 14.5 | 17.7 | 0.00 | 0.00 | 0.00 | 68 | 1012.2 |
| 20260906051803 | 27 | 19 | 16.1 | 19.3 | 0.00 | 0.00 | 0.00 | 68 | 1012.1 |
| 20260906051117 | 27 | 17 | 14.5 | 17.7 | 0.00 | 0.00 | 0.00 | 69 | 1012.1 |
| 20260906050214 | 26 | 13 | 14.5 | 17.7 | 0.00 | 0.00 | 0.00 | 69 | 1012.1 |
| 20260906045616 | 26 | 9 | 14.5 | 17.7 | 0.00 | 0.00 | 0.00 | 70 | 1012.1 |
| 20260906044713 | 26 | 9 | 14.5 | 16.1 | 0.00 | 0.00 | 0.00 | 70 | 1012.1 |
| 20260906043815 | 26 | 9 | 14.5 | 16.1 | 0.00 | 0.00 | 0.00 | 70 | 1012.2 |
| 20260906042913 | 27 | 8 | 12.9 | 16.1 | 0.00 | 0.00 | 0.00 | 69 | 1012.1 |
| 20260906041803 | 27 | 36 | 12.9 | 14.5 | 0.00 | 0.00 | 0.00 | 69 | 1012.2 |
| 20260906040903 | 27 | 23 | 14.5 | 16.1 | 0.00 | 0.00 | 0.00 | 69 | 1012.1 |
| 20260906040003 | 27 | 17 | 12.9 | 14.5 | 0.00 | 0.00 | 0.00 | 69 | 1012.1 |
| 20260906035616 | 27 | 27 | 12.9 | 14.5 | 0.00 | 0.00 | 0.00 | 69 | 1012.1 |
| 20260906034503 | 27 | 31 | 12.9 | 14.5 | 0.00 | 0.00 | 0.00 | 69 | 1012.0 |
| 20260906033816 | 27 | 33 | 12.9 | 14.5 | 0.00 | 0.00 | 0.00 | 69 | 1012.0 |
| 20260906032703 | 27 | 26 | 11.3 | 14.5 | 0.00 | 0.00 | 0.00 | 69 | 1011.8 |
| 20260906032016 | 27 | 29 | 12.9 | 14.5 | 0.00 | 0.00 | 0.00 | 69 | 1011.8 |
| 20260906030903 | 27 | 49 | 12.9 | 14.5 | 0.00 | 0.00 | 0.00 | 68 | 1011.7 |
| 20260906030003 | 28 | 66 | 12.9 | 14.5 | 0.00 | 0.00 | 0.00 | 67 | 1011.7 |
| 20260906025617 | 28 | 67 | 12.9 | 14.5 | 0.00 | 0.00 | 0.00 | 66 | 1011.6 |
| 20260906024503 | 28 | 77 | 11.3 | 16.1 | 0.00 | 0.00 | 0.00 | 65 | 1011.6 |
| 20260906023603 | 28 | 74 | 11.3 | 14.5 | 0.00 | 0.00 | 0.00 | 64 | 1011.4 |
| 20260906022703 | 29 | 81 | 11.3 | 16.1 | 0.00 | 0.00 | 0.00 | 64 | 1011.2 |
| 20260906022016 | 30 | 78 | 11.3 | 16.1 | 0.00 | 0.00 | 0.00 | 63 | 1011.0 |
| 20260906020903 | 30 | 72 | 12.9 | 16.1 | 0.00 | 0.00 | 0.00 | 62 | 1010.8 |
| 20260906020216 | 30 | 75 | 12.9 | 17.7 | 0.00 | 0.00 | 0.00 | 62 | 1010.7 |
| 20260906015403 | 30 | 76 | 14.5 | 17.7 | 0.00 | 0.00 | 0.00 | 62 | 1010.4 |
| 20260906014715 | 30 | 76 | 12.9 | 17.7 | 0.00 | 0.00 | 0.00 | 61 | 1010.3 |
| 20260906013812 | 30 | 79 | 11.3 | 14.5 | 0.00 | 0.00 | 0.00 | 61 | 1010.2 |
| 20260906012703 | 31 | 79 | 9.7 | 14.5 | 0.00 | 0.00 | 0.00 | 59 | 1010.2 |
| 20260906011803 | 31 | 78 | 11.3 | 14.5 | 0.00 | 0.00 | 0.00 | 58 | 1010.2 |
| 20260906011114 | 31 | 76 | 9.7 | 14.5 | 0.00 | 0.00 | 0.00 | 57 | 1010.2 |
| 20260906010003 | 32 | 79 | 9.7 | 14.5 | 0.00 | 0.00 | 0.00 | 56 | 1010.2 |
| 20260906005613 | 32 | 78 | 11.3 | 14.5 | 0.00 | 0.00 | 0.00 | 55 | 1010.3 |
| 20260906004716 | 32 | 82 | 9.7 | 14.5 | 0.00 | 0.00 | 0.00 | 54 | 1010.2 |
| 20260906003603 | 33 | 76 | 12.9 | 16.1 | 0.00 | 0.00 | 0.00 | 52 | 1010.2 |
| 20260906002704 | 33 | 71 | 11.3 | 14.5 | 0.00 | 0.00 | 0.00 | 51 | 1010.2 |
| 20260906001803 | 34 | 76 | 12.9 | 17.7 | 0.00 | 0.00 | 0.00 | 50 | 1010.2 |
| 20260906000903 | 34 | 95 | 16.1 | 20.9 | 0.00 | 0.00 | 0.00 | 49 | 1010.2 |
| 20260906000219 | 35 | 95 | 16.1 | 22.5 | 0.00 | 0.00 | 0.00 | 48 | 1010.1 |
| 20260905235403 | 35 | 101 | 16.1 | 20.9 | 0.00 | 0.00 | 0.00 | 48 | 1010.1 |
| 20260905234716 | 35 | 101 | 14.5 | 20.9 | 0.00 | 0.00 | 0.00 | 47 | 1010.1 |
| 20260905233603 | 35 | 88 | 16.1 | 24.1 | 0.00 | 0.00 | 0.00 | 47 | 1010.3 |
| 20260905232916 | 35 | 97 | 16.1 | 24.1 | 0.00 | 0.00 | 0.00 | 47 | 1010.3 |
| 20260905232013 | 36 | 112 | 20.9 | 29.0 | 0.00 | 0.00 | 0.00 | 45 | 1010.3 |
| 20260905230903 | 36 | 106 | 19.3 | 27.4 | 0.00 | 0.00 | 0.00 | 44 | 1010.3 |
| 20260905230213 | 36 | 105 | 20.9 | 27.4 | 0.00 | 0.00 | 0.00 | 44 | 1010.3 |
| 20260905225614 | 37 | 107 | 19.3 | 27.4 | 0.00 | 0.00 | 0.00 | 44 | 1010.3 |
| 20260905224717 | 36 | 117 | 17.7 | 24.1 | 0.00 | 0.00 | 0.00 | 45 | 1010.2 |
| 20260905223603 | 37 | 130 | 17.7 | 22.5 | 0.00 | 0.00 | 0.00 | 43 | 1010.3 |
| 20260905222917 | 37 | 132 | 19.3 | 27.4 | 0.00 | 0.00 | 0.00 | 42 | 1010.4 |
| 20260905222014 | 37 | 136 | 17.7 | 27.4 | 0.00 | 0.00 | 0.00 | 40 | 1010.5 |
| 20260905220903 | 38 | 97 | 16.1 | 29.0 | 0.00 | 0.00 | 0.00 | 42 | 1010.5 |
| 20260905220004 | 38 | 94 | 17.7 | 29.0 | 0.00 | 0.00 | 0.00 | 41 | 1010.5 |
| 20260905215403 | 38 | 117 | 17.7 | 30.6 | 0.00 | 0.00 | 0.00 | 41 | 1010.5 |
| 20260905214503 | 38 | 118 | 19.3 | 25.7 | 0.00 | 0.00 | 0.00 | 42 | 1010.7 |
| 20260905213603 | 37 | 110 | 19.3 | 27.4 | 0.00 | 0.00 | 0.00 | 42 | 1010.7 |
| 20260905212703 | 37 | 117 | 19.3 | 25.7 | 0.00 | 0.00 | 0.00 | 42 | 1010.8 |
| 20260905211803 | 37 | 110 | 19.3 | 27.4 | 0.00 | 0.00 | 0.00 | 41 | 1010.7 |
| 20260905210903 | 37 | 108 | 17.7 | 25.7 | 0.00 | 0.00 | 0.00 | 41 | 1010.8 |
| 20260905210003 | 37 | 108 | 16.1 | 25.7 | 0.00 | 0.00 | 0.00 | 44 | 1010.9 |
| 20260905205403 | 37 | 114 | 17.7 | 25.7 | 0.00 | 0.00 | 0.00 | 43 | 1010.9 |
| 20260905204503 | 37 | 122 | 20.9 | 27.4 | 0.00 | 0.00 | 0.00 | 43 | 1011.0 |
| 20260905203815 | 37 | 115 | 20.9 | 27.4 | 0.00 | 0.00 | 0.00 | 43 | 1011.1 |
| 20260905202703 | 37 | 113 | 19.3 | 29.0 | 0.00 | 0.00 | 0.00 | 44 | 1011.3 |
| 20260905202015 | 37 | 119 | 19.3 | 29.0 | 0.00 | 0.00 | 0.00 | 44 | 1011.3 |
| 20260905200903 | 37 | 91 | 19.3 | 27.4 | 0.00 | 0.00 | 0.00 | 43 | 1011.5 |
| 20260905200215 | 37 | 110 | 19.3 | 24.1 | 0.00 | 0.00 | 0.00 | 44 | 1011.5 |
| 20260905195403 | 36 | 101 | 19.3 | 24.1 | 0.00 | 0.00 | 0.00 | 46 | 1011.7 |
| 20260905194503 | 36 | 114 | 19.3 | 25.7 | 0.00 | 0.00 | 0.00 | 47 | 1011.8 |
| 20260905193603 | 36 | 115 | 17.7 | 25.7 | 0.00 | 0.00 | 0.00 | 46 | 1011.7 |
| 20260905192703 | 37 | 119 | 17.7 | 27.4 | 0.00 | 0.00 | 0.00 | 46 | 1011.9 |
| 20260905191804 | 37 | 121 | 19.3 | 24.1 | 0.00 | 0.00 | 0.00 | 45 | 1012.0 |